BVG2754 EGLL-OBBI

Flight info

Callsign BVG2754
Flight time N/A
Altitude 37000
Route DET1J DET L6 DVR L9 KONAN UL607 REMBA DCT LIRSU DCT ULNOK DCT VIBOM DCT NOMBO DCT RIDAR DCT RADIZ DCT REKTI DCT NEMEK DCT ETOBI DCT OSLUD DCT MEDUX UM867 KOGAT DCT ERANA UL737 TSL UN130 MES UL609 RDS UL995 VANZA DCT LAKTO L324 GENIV L550 KARIK B411 DEESA Y415 TAMRO N318 LADNA LADNA1
Aircraft B738/M-SDE2E3FGHIRWXY/LB1

Departure

Time 2026-04-30 18:51
Airport London Heathrow Airport (EGLL)

Arrival

Time N/A
Airport Bahrain International Airport (OBBI)
Time Latitude Longitude Altitude Speed Heading
2026-04-30 18:11 51.47145 -0.44532 91 ft 0 kts 146°
2026-04-30 18:15 51.47169 -0.44557 91 ft 3 kts 146°
2026-04-30 18:16 51.47201 -0.44592 91 ft 3 kts 146°
2026-04-30 18:16 51.47195 -0.44566 91 ft 2 kts 73°
2026-04-30 18:17 51.47204 -0.44548 91 ft 0 kts 50°
2026-04-30 18:17 51.47203 -0.44550 91 ft 0 kts 50°
2026-04-30 18:20 51.47203 -0.44549 91 ft 1 kts 50°
2026-04-30 18:20 51.47208 -0.44541 91 ft 1 kts 42°
2026-04-30 18:21 51.47217 -0.44528 91 ft 2 kts 39°
2026-04-30 18:21 51.47232 -0.44512 91 ft 3 kts 36°
2026-04-30 18:21 51.47250 -0.44491 91 ft 2 kts 36°
2026-04-30 18:21 51.47252 -0.44488 91 ft 1 kts 36°
2026-04-30 18:22 51.47259 -0.44480 91 ft 2 kts 36°
2026-04-30 18:22 51.47285 -0.44444 91 ft 3 kts 50°
2026-04-30 18:22 51.47301 -0.44415 91 ft 4 kts 50°
2026-04-30 18:23 51.47319 -0.44379 91 ft 5 kts 52°
2026-04-30 18:23 51.47339 -0.44335 91 ft 5 kts 55°
2026-04-30 18:23 51.47360 -0.44286 91 ft 6 kts 51°
2026-04-30 18:23 51.47390 -0.44237 91 ft 6 kts 41°
2026-04-30 18:24 51.47472 -0.44248 91 ft 7 kts 321°
2026-04-30 18:24 51.47499 -0.44292 91 ft 5 kts 303°
2026-04-30 18:24 51.47516 -0.44345 91 ft 6 kts 291°
2026-04-30 18:25 51.47526 -0.44409 91 ft 6 kts 276°
2026-04-30 18:25 51.47529 -0.44556 91 ft 7 kts 270°
2026-04-30 18:25 51.47540 -0.44629 91 ft 7 kts 301°
2026-04-30 18:26 51.47596 -0.44771 91 ft 8 kts 268°
2026-04-30 18:26 51.47584 -0.44854 91 ft 8 kts 276°
2026-04-30 18:26 51.47590 -0.44939 91 ft 8 kts 283°
2026-04-30 18:27 51.47596 -0.44993 91 ft 1 kts 276°
2026-04-30 18:27 51.47597 -0.45061 91 ft 11 kts 266°
2026-04-30 18:28 51.47600 -0.45299 91 ft 6 kts 263°
2026-04-30 18:28 51.47598 -0.45346 91 ft 0 kts 269°
2026-04-30 18:31 51.47598 -0.45370 91 ft 7 kts 268°
2026-04-30 18:31 51.47535 -0.45484 91 ft 7 kts 228°
2026-04-30 18:32 51.47523 -0.45631 91 ft 6 kts 269°
2026-04-30 18:32 51.47522 -0.45704 91 ft 6 kts 267°
2026-04-30 18:32 51.47518 -0.45842 91 ft 6 kts 267°
2026-04-30 18:33 51.47517 -0.45907 91 ft 6 kts 267°
2026-04-30 18:33 51.47514 -0.46032 91 ft 5 kts 265°
2026-04-30 18:33 51.47513 -0.46092 91 ft 5 kts 269°
2026-04-30 18:34 51.47514 -0.46142 91 ft 5 kts 274°
2026-04-30 18:34 51.47528 -0.46234 91 ft 5 kts 282°
2026-04-30 18:34 51.47524 -0.46285 91 ft 4 kts 260°
2026-04-30 18:35 51.47518 -0.46332 91 ft 4 kts 261°
2026-04-30 18:35 51.47514 -0.46379 91 ft 4 kts 261°
2026-04-30 18:35 51.47511 -0.46422 91 ft 4 kts 267°
2026-04-30 18:36 51.47511 -0.46506 91 ft 3 kts 271°
2026-04-30 18:36 51.47511 -0.46544 91 ft 3 kts 271°
2026-04-30 18:36 51.47512 -0.46613 91 ft 3 kts 271°
2026-04-30 18:37 51.47512 -0.46646 91 ft 3 kts 269°
2026-04-30 18:37 51.47512 -0.46677 91 ft 3 kts 269°
2026-04-30 18:37 51.47511 -0.46706 91 ft 2 kts 266°
2026-04-30 18:37 51.47510 -0.46733 91 ft 2 kts 265°
2026-04-30 18:38 51.47508 -0.46757 91 ft 2 kts 265°
2026-04-30 18:38 51.47501 -0.46796 91 ft 6 kts 244°
2026-04-30 18:38 51.47462 -0.46845 91 ft 9 kts 194°
2026-04-30 18:38 51.47396 -0.46850 91 ft 12 kts 184°
2026-04-30 18:39 51.47300 -0.46857 91 ft 14 kts 174°
2026-04-30 18:39 51.47201 -0.46849 91 ft 14 kts 179°
2026-04-30 18:39 51.47108 -0.46851 91 ft 13 kts 179°
2026-04-30 18:39 51.47019 -0.46849 91 ft 13 kts 180°
2026-04-30 18:40 51.46932 -0.46850 91 ft 12 kts 182°
2026-04-30 18:40 51.46849 -0.46859 91 ft 12 kts 182°
2026-04-30 18:40 51.46770 -0.46860 91 ft 11 kts 182°
2026-04-30 18:40 51.46740 -0.46859 91 ft 0 kts 179°
2026-04-30 18:41 51.46706 -0.46863 91 ft 10 kts 189°
2026-04-30 18:42 51.46659 -0.46924 91 ft 9 kts 253°
2026-04-30 18:42 51.46656 -0.47090 91 ft 5 kts 270°
2026-04-30 18:42 51.46658 -0.47147 91 ft 5 kts 271°
2026-04-30 18:45 51.46623 -0.47572 91 ft 3 kts 265°
2026-04-30 18:45 51.46623 -0.47605 91 ft 3 kts 269°
2026-04-30 18:45 51.46623 -0.47638 91 ft 3 kts 271°
2026-04-30 18:46 51.46622 -0.47676 91 ft 4 kts 267°
2026-04-30 18:46 51.46622 -0.47723 91 ft 5 kts 270°
2026-04-30 18:46 51.46622 -0.47777 91 ft 5 kts 265°
2026-04-30 18:46 51.46622 -0.47837 91 ft 6 kts 269°
2026-04-30 18:47 51.46624 -0.47904 91 ft 6 kts 271°
2026-04-30 18:47 51.46624 -0.47974 91 ft 7 kts 271°
2026-04-30 18:47 51.46621 -0.48054 91 ft 7 kts 272°
2026-04-30 18:47 51.46624 -0.48126 91 ft 0 kts 265°
2026-04-30 18:48 51.46624 -0.48127 91 ft 0 kts 265°
2026-04-30 18:48 51.46624 -0.48129 91 ft 1 kts 261°
2026-04-30 18:49 51.46603 -0.48180 91 ft 10 kts 222°
2026-04-30 18:49 51.46536 -0.48199 91 ft 10 kts 181°
2026-04-30 18:49 51.46525 -0.48199 91 ft 2 kts 182°
2026-04-30 18:49 51.46486 -0.48176 91 ft 7 kts 113°
2026-04-30 18:50 51.46485 -0.48138 91 ft 0 kts 91°
2026-04-30 18:50 51.46485 -0.48134 91 ft 0 kts 91°
2026-04-30 18:50 51.46485 -0.48133 91 ft 2 kts 91°
2026-04-30 18:50 51.46483 -0.47743 91 ft 71 kts 83°
2026-04-30 18:51 51.46478 -0.46559 91 ft 136 kts 89°
2026-04-30 18:51 51.46463 -0.44832 91 ft 187 kts 90°
2026-04-30 18:51 51.46467 -0.42547 497 ft 200 kts 90°
2026-04-30 18:51 51.46448 -0.40360 1567 ft 192 kts 91°
2026-04-30 18:52 51.46389 -0.38225 2389 ft 190 kts 94°
2026-04-30 18:52 51.46279 -0.36125 3099 ft 187 kts 96°
2026-04-30 18:52 51.46111 -0.34085 3749 ft 184 kts 98°
2026-04-30 18:52 51.45883 -0.32130 4329 ft 184 kts 101°
2026-04-30 18:53 51.45559 -0.30038 4847 ft 190 kts 104°
2026-04-30 18:53 51.45163 -0.27991 5223 ft 203 kts 108°
2026-04-30 18:53 51.44446 -0.25927 5409 ft 224 kts 131°
2026-04-30 18:53 51.43415 -0.23916 5728 ft 238 kts 123°
2026-04-30 18:54 51.42701 -0.21498 5999 ft 244 kts 109°
2026-04-30 18:54 51.42256 -0.18895 6037 ft 246 kts 105°
2026-04-30 18:54 51.41818 -0.16194 6013 ft 245 kts 104°
2026-04-30 18:54 51.41402 -0.13593 6003 ft 242 kts 103°
2026-04-30 18:55 51.41005 -0.10978 6000 ft 242 kts 104°
2026-04-30 18:55 51.40182 -0.05723 6000 ft 242 kts 104°
2026-04-30 18:55 51.39778 -0.03192 6000 ft 242 kts 104°
2026-04-30 18:56 51.38938 0.02043 6249 ft 242 kts 105°
2026-04-30 18:56 51.38507 0.04715 6534 ft 247 kts 105°
2026-04-30 18:56 51.38079 0.07364 6807 ft 248 kts 106°
2026-04-30 18:57 51.37193 0.12753 7543 ft 251 kts 106°
2026-04-30 18:57 51.36752 0.15415 8111 ft 252 kts 106°
2026-04-30 18:57 51.36302 0.18124 8622 ft 254 kts 106°
2026-04-30 18:58 51.35529 0.22762 9497 ft 258 kts 106°
2026-04-30 18:58 51.35064 0.25548 10003 ft 260 kts 106°
2026-04-30 18:58 51.34587 0.28392 10330 ft 272 kts 106°
2026-04-30 18:59 51.33553 0.34550 10802 ft 302 kts 106°
2026-04-30 19:00 51.31828 0.44775 11916 ft 341 kts 106°
2026-04-30 19:00 51.31261 0.48125 12156 ft 355 kts 106°
2026-04-30 19:00 51.29904 0.56128 12608 ft 387 kts 106°
2026-04-30 19:01 51.28478 0.64769 13012 ft 416 kts 105°
2026-04-30 19:01 51.27747 0.69270 13274 ft 426 kts 105°
2026-04-30 19:02 51.26205 0.78514 14207 ft 434 kts 106°
2026-04-30 19:02 51.24633 0.87835 15155 ft 441 kts 105°
2026-04-30 19:03 51.23056 0.97343 16072 ft 446 kts 106°
2026-04-30 19:03 51.21374 1.07036 16945 ft 452 kts 107°
2026-04-30 19:04 51.19686 1.16662 17755 ft 457 kts 107°
2026-04-30 19:04 51.17976 1.26378 18526 ft 463 kts 107°
2026-04-30 19:05 51.16383 1.36531 19273 ft 468 kts 100°
2026-04-30 19:05 51.15712 1.46805 20012 ft 473 kts 94°
2026-04-30 19:06 51.15310 1.57454 20705 ft 478 kts 94°
2026-04-30 19:06 51.15064 1.62608 21033 ft 480 kts 95°
2026-04-30 19:06 51.14512 1.73350 21652 ft 485 kts 95°
2026-04-30 19:07 51.13943 1.84107 22247 ft 489 kts 95°
2026-04-30 19:07 51.13658 1.89468 22539 ft 490 kts 95°
2026-04-30 19:08 51.13096 2.00065 23083 ft 494 kts 95°
2026-04-30 19:08 51.12492 2.11228 23603 ft 498 kts 95°
2026-04-30 19:08 51.12207 2.16719 23856 ft 499 kts 94°
2026-04-30 19:09 51.11662 2.27821 24316 ft 503 kts 95°
2026-04-30 19:09 51.11350 2.33385 24546 ft 505 kts 95°
2026-04-30 19:09 51.11034 2.38889 24750 ft 507 kts 96°
2026-04-30 19:10 51.10388 2.50001 25328 ft 506 kts 96°
2026-04-30 19:10 51.09720 2.61119 25884 ft 506 kts 97°
2026-04-30 19:11 51.09242 2.65940 26161 ft 504 kts 102°
2026-04-30 19:11 51.07463 2.76653 26746 ft 503 kts 108°
2026-04-30 19:11 51.06462 2.81990 27093 ft 501 kts 107°
2026-04-30 19:12 51.05482 2.87249 27452 ft 499 kts 107°
2026-04-30 19:12 51.04488 2.92603 27706 ft 500 kts 107°
2026-04-30 19:12 51.03512 2.97869 28010 ft 499 kts 107°
2026-04-30 19:13 51.01539 3.08505 28675 ft 497 kts 107°
2026-04-30 19:13 50.99651 3.18951 29393 ft 494 kts 105°
2026-04-30 19:13 50.98762 3.24133 29571 ft 496 kts 107°
2026-04-30 19:14 50.97800 3.29379 29926 ft 493 kts 107°
2026-04-30 19:14 50.96825 3.34577 30571 ft 484 kts 108°
2026-04-30 19:14 50.95855 3.39713 30898 ft 484 kts 108°
2026-04-30 19:14 50.94883 3.44839 31063 ft 486 kts 108°
2026-04-30 19:15 50.93909 3.49967 31236 ft 488 kts 108°
2026-04-30 19:15 50.91978 3.60130 31852 ft 485 kts 108°
2026-04-30 19:15 50.90993 3.65310 32081 ft 486 kts 108°
2026-04-30 19:16 50.90008 3.70381 32339 ft 485 kts 108°
2026-04-30 19:16 50.89012 3.75481 32615 ft 484 kts 108°
2026-04-30 19:16 50.87049 3.85492 33105 ft 483 kts 108°
2026-04-30 19:17 50.86045 3.90592 33345 ft 483 kts 108°
2026-04-30 19:17 50.84035 4.00778 33829 ft 482 kts 108°
2026-04-30 19:17 50.83054 4.05736 34058 ft 481 kts 108°
2026-04-30 19:18 50.81398 4.14263 34441 ft 481 kts 107°
2026-04-30 19:18 50.80155 4.20997 34736 ft 480 kts 108°
2026-04-30 19:18 50.79132 4.26218 34968 ft 479 kts 108°
2026-04-30 19:19 50.78181 4.30980 35165 ft 479 kts 109°
2026-04-30 19:19 50.77179 4.35968 35378 ft 479 kts 109°
2026-04-30 19:19 50.75150 4.46010 35894 ft 475 kts 109°
2026-04-30 19:20 50.73137 4.55957 36057 ft 480 kts 109°
2026-04-30 19:20 50.71179 4.66067 36274 ft 483 kts 108°
2026-04-30 19:21 50.70187 4.71133 36379 ft 484 kts 108°
2026-04-30 19:21 50.68175 4.81358 36558 ft 487 kts 108°
2026-04-30 19:22 50.66071 4.91577 36710 ft 489 kts 112°
2026-04-30 19:22 50.61777 5.06131 36900 ft 491 kts 117°
2026-04-30 19:23 50.57313 5.20720 36992 ft 493 kts 117°
2026-04-30 19:24 50.52888 5.35155 36997 ft 493 kts 117°
2026-04-30 19:25 50.45519 5.59519 36996 ft 493 kts 117°
2026-04-30 19:26 50.39545 5.78909 36997 ft 492 kts 117°
2026-04-30 19:27 50.35084 5.93264 36997 ft 492 kts 117°
2026-04-30 19:28 50.30876 6.06928 36997 ft 492 kts 117°
2026-04-30 19:29 50.24984 6.25569 36997 ft 492 kts 118°
2026-04-30 19:30 50.19042 6.44721 36998 ft 492 kts 112°
2026-04-30 19:31 50.15373 6.65271 36997 ft 493 kts 105°
2026-04-30 19:31 50.12793 6.80773 36997 ft 493 kts 105°
2026-04-30 19:32 50.11064 6.91024 36997 ft 493 kts 105°
2026-04-30 19:32 50.09329 7.01474 36997 ft 493 kts 104°
2026-04-30 19:33 50.07657 7.11766 36997 ft 493 kts 105°
2026-04-30 19:33 50.05950 7.21966 36995 ft 493 kts 105°
2026-04-30 19:34 50.04173 7.32437 36997 ft 493 kts 105°
2026-04-30 19:35 50.01558 7.47700 36997 ft 493 kts 106°
2026-04-30 19:35 49.99752 7.58150 36997 ft 493 kts 106°
2026-04-30 19:36 49.97971 7.68402 36997 ft 492 kts 106°
2026-04-30 19:36 49.95309 7.83611 36997 ft 492 kts 106°
2026-04-30 19:37 49.93477 7.94023 36997 ft 492 kts 106°
2026-04-30 19:37 49.91712 8.04283 36997 ft 492 kts 106°
2026-04-30 19:38 49.89886 8.14460 36997 ft 492 kts 107°
2026-04-30 19:38 49.88036 8.24659 36997 ft 492 kts 107°
2026-04-30 19:39 49.86161 8.34858 36995 ft 491 kts 109°
2026-04-30 19:39 49.83328 8.44348 36998 ft 488 kts 125°
2026-04-30 19:40 49.79274 8.52846 36997 ft 487 kts 130°
2026-04-30 19:40 49.75063 8.60949 36997 ft 486 kts 131°
2026-04-30 19:41 49.70820 8.69112 36997 ft 486 kts 131°
2026-04-30 19:41 49.67272 8.75929 36997 ft 486 kts 130°
2026-04-30 19:42 49.63132 8.84087 36997 ft 486 kts 130°
2026-04-30 19:42 49.58186 8.93583 36997 ft 486 kts 131°
2026-04-30 19:43 49.53932 9.01674 36997 ft 486 kts 131°
2026-04-30 19:44 49.48259 9.12439 36997 ft 486 kts 131°
2026-04-30 19:44 49.43666 9.22278 36997 ft 487 kts 124°
2026-04-30 19:45 49.40607 9.29570 36997 ft 487 kts 125°
2026-04-30 19:45 49.36911 9.38242 36997 ft 487 kts 125°
2026-04-30 19:46 49.33147 9.46999 36997 ft 487 kts 125°
2026-04-30 19:46 49.29431 9.55611 36997 ft 487 kts 125°
2026-04-30 19:47 49.25734 9.64275 36997 ft 487 kts 125°
2026-04-30 19:47 49.22061 9.72961 36997 ft 487 kts 125°
2026-04-30 19:48 49.18329 9.81593 36997 ft 487 kts 126°
2026-04-30 19:48 49.14553 9.90227 36997 ft 486 kts 126°
2026-04-30 19:49 49.10800 9.98779 36997 ft 486 kts 126°
2026-04-30 19:49 49.04819 10.11154 36998 ft 483 kts 135°
2026-04-30 19:50 49.00072 10.18419 36997 ft 483 kts 137°
2026-04-30 19:50 48.95308 10.25582 36997 ft 483 kts 137°
2026-04-30 19:51 48.90515 10.32790 36997 ft 483 kts 137°
2026-04-30 19:51 48.85746 10.39951 36997 ft 482 kts 137°
2026-04-30 19:52 48.80969 10.47147 36996 ft 483 kts 136°
2026-04-30 19:52 48.76226 10.54410 36997 ft 482 kts 137°
2026-04-30 19:53 48.71514 10.61448 36997 ft 482 kts 138°
2026-04-30 19:53 48.66685 10.68618 36997 ft 482 kts 138°
2026-04-30 19:54 48.61891 10.75720 36997 ft 482 kts 138°
2026-04-30 19:54 48.57282 10.82928 36999 ft 483 kts 132°
2026-04-30 19:55 48.53016 10.90860 36997 ft 484 kts 131°
2026-04-30 19:55 48.48787 10.98748 36997 ft 484 kts 131°
2026-04-30 19:56 48.44537 11.06588 36997 ft 484 kts 131°
2026-04-30 19:56 48.40264 11.14427 36997 ft 483 kts 131°
2026-04-30 19:57 48.36083 11.22098 36997 ft 483 kts 131°
2026-04-30 19:57 48.31824 11.30025 36997 ft 483 kts 131°
2026-04-30 19:58 48.27577 11.37829 36997 ft 483 kts 131°
2026-04-30 19:58 48.23267 11.45696 36997 ft 483 kts 131°
2026-04-30 19:59 48.18992 11.53468 36997 ft 483 kts 131°
2026-04-30 20:00 48.12659 11.64933 36997 ft 483 kts 131°
2026-04-30 20:00 48.08462 11.72504 36997 ft 483 kts 131°
2026-04-30 20:01 48.02013 11.84098 36997 ft 482 kts 132°
2026-04-30 20:01 47.97711 11.91803 36997 ft 482 kts 132°
2026-04-30 20:02 47.91267 12.03306 36997 ft 482 kts 132°
2026-04-30 20:03 47.84927 12.14575 36997 ft 482 kts 132°
2026-04-30 20:03 47.80647 12.22238 36996 ft 482 kts 132°
2026-04-30 20:04 47.76313 12.29900 36997 ft 482 kts 132°
2026-04-30 20:05 47.69846 12.41234 36997 ft 482 kts 132°
2026-04-30 20:05 47.63340 12.52578 36996 ft 481 kts 134°
2026-04-30 20:06 47.58515 12.59499 36997 ft 479 kts 141°
2026-04-30 20:06 47.53574 12.65975 36997 ft 479 kts 141°
2026-04-30 20:07 47.48552 12.72597 36996 ft 479 kts 141°
2026-04-30 20:08 47.41133 12.82384 36997 ft 479 kts 141°
2026-04-30 20:08 47.36167 12.88939 36997 ft 479 kts 140°
2026-04-30 20:09 47.31247 12.95517 36997 ft 479 kts 140°
2026-04-30 20:09 47.23821 13.05324 36997 ft 478 kts 141°
2026-04-30 20:10 47.16346 13.15129 36997 ft 478 kts 141°
2026-04-30 20:11 47.08899 13.24855 36997 ft 478 kts 141°
2026-04-30 20:11 47.03932 13.31320 36997 ft 478 kts 141°
2026-04-30 20:12 46.96445 13.41033 36997 ft 478 kts 141°
2026-04-30 20:13 46.91474 13.47462 36997 ft 478 kts 141°
2026-04-30 20:13 46.86491 13.53889 36996 ft 478 kts 141°
2026-04-30 20:14 46.81546 13.60277 36997 ft 478 kts 140°
2026-04-30 20:14 46.76619 13.66643 36997 ft 477 kts 141°
2026-04-30 20:15 46.71582 13.73073 36997 ft 477 kts 141°
2026-04-30 20:15 46.66622 13.79384 36996 ft 477 kts 141°
2026-04-30 20:16 46.61586 13.85780 36997 ft 477 kts 141°
2026-04-30 20:16 46.56679 13.92131 36997 ft 478 kts 138°
2026-04-30 20:17 46.51942 13.98914 36997 ft 478 kts 138°
2026-04-30 20:17 46.47151 14.05723 36997 ft 478 kts 138°
2026-04-30 20:18 46.42418 14.12399 36997 ft 478 kts 138°
2026-04-30 20:18 46.37644 14.19106 36996 ft 477 kts 138°
2026-04-30 20:19 46.32930 14.25730 36997 ft 478 kts 137°
2026-04-30 20:19 46.28140 14.32538 36997 ft 477 kts 138°
2026-04-30 20:20 46.23413 14.39186 36997 ft 477 kts 138°
2026-04-30 20:20 46.18674 14.45813 36997 ft 477 kts 138°
2026-04-30 20:21 46.13882 14.52491 36997 ft 477 kts 138°
2026-04-30 20:21 46.09109 14.59125 36997 ft 477 kts 138°
2026-04-30 20:22 46.04312 14.65774 36997 ft 477 kts 138°
2026-04-30 20:22 45.99543 14.72367 36997 ft 477 kts 139°
2026-04-30 20:23 45.94789 14.78924 36997 ft 477 kts 139°
2026-04-30 20:23 45.89966 14.85559 36997 ft 477 kts 139°
2026-04-30 20:24 45.85183 14.92123 36997 ft 476 kts 139°
2026-04-30 20:24 45.80408 14.98668 36997 ft 476 kts 138°
2026-04-30 20:25 45.73239 15.08506 36997 ft 476 kts 139°
2026-04-30 20:26 45.65996 15.18319 36997 ft 476 kts 139°
2026-04-30 20:26 45.58786 15.28060 36997 ft 476 kts 139°
2026-04-30 20:27 45.51219 15.40024 36997 ft 478 kts 131°
2026-04-30 20:28 45.42645 15.54613 36997 ft 477 kts 132°
2026-04-30 20:30 45.31234 15.73720 36997 ft 477 kts 132°
2026-04-30 20:31 45.19120 15.93862 36997 ft 477 kts 133°
2026-04-30 20:32 45.08410 16.11494 36997 ft 477 kts 133°
2026-04-30 20:33 45.01975 16.22034 36997 ft 477 kts 133°
2026-04-30 20:34 44.95493 16.32611 36997 ft 477 kts 133°
2026-04-30 20:35 44.89028 16.43120 36997 ft 476 kts 133°
2026-04-30 20:35 44.83914 16.51406 36993 ft 476 kts 133°